Regional Weather Roundup
Issued by NWS Northern Indiana

Home | Current Version | Previous Version | Text Only | Print | Product List | Glossary Off
Versions: 1 2 3 4 5 6 7 8 9 10 11 12 13 14 15 16 17 18 19 20 21 22 23 24 25 26 27 28 29 30 31 32 33 34 35 36 37 38 39 40 41 42 43 44 45 46 47 48 49 50

000
ASUS43 KIWX 190400
RWRIWX

KIWX WEATHER ROUNDUP
NATIONAL WEATHER SERVICE NORTHERN INDIANA
1200 AM EDT SAT APR 19 2014

NOTE: "FAIR" INDICATES FEW OR NO CLOUDS BELOW 12,000 FEET WITH NO
SIGNIFICANT WEATHER AND/OR OBSTRUCTIONS TO VISIBILITY.

* THESE STATIONS ARE NOT UNDER NWS QUALITY CONTROL. THEY ALSO MAY NOT
  REPORT WEATHER SUCH AS PRECIPITATION OR FOG.

INZ001>027-190500-
NORTHERN INDIANA

CITY           SKY/WX    TMP DP  RH WIND       PRES   REMARKS
VALPARAISO     CLEAR     35  25  66 N6        30.35S WCI  30
SOUTH BEND     CLEAR     35  23  61 N6        30.35S WCI  30
GOSHEN         CLEAR     39  28  64 N7        30.32S
MONTICELLO*    CLEAR     42  33  71 NE5       30.32F
ANGOLA*        CLEAR     43  34  70 N3        30.31R
FORT WAYNE     CLEAR     45  35  68 N9        30.31S
PERU/GRISSOM   CLEAR     45  34  64 N13       30.31S

$$
INZ028>050-190500-
CENTRAL INDIANA

CITY           SKY/WX    TMP DP  RH WIND       PRES   REMARKS
LAFAYETTE      CLEAR     44  32  62 NE7       30.33R
KOKOMO*        CLEAR     46  36  66 N7        30.31S
MUNCIE*        CLEAR     49  37  63 N9        30.29R
INDIANAPOLIS   CLEAR     53  36  52 N14       30.27R

$$
MIZ043>046-050>051-056>058-064>065-071>073-077>080-190500-
SOUTHWEST LOWER MICHIGAN

CITY           SKY/WX    TMP DP  RH WIND       PRES   REMARKS
BATTLE CREEK   CLEAR     41  30  65 N6        30.33R
BENTON HARBOR  CLEAR     32  26  78 CALM      30.36R
COLDWATER*     CLEAR     41  32  68 N3        30.32R
HILLSDALE*     CLEAR     43  31  63 N7        30.30S
HOLLAND        CLEAR     42  27  55 N7        30.36R
GRAND RAPIDS   CLEAR     42  27  55 NE16      30.36R
KALAMAZOO      CLEAR     38  27  64 N6        30.34R
STURGIS*       CLEAR     39  30  70 NW3       30.32R
THREE RIVERS*  FAIR      38  29  72 W3        30.34R

$$
OHZ001>008-015>018-024>025-190500-
NORTHWEST OHIO

CITY           SKY/WX    TMP DP  RH WIND       PRES   REMARKS
DEFIANCE       CLEAR     48  34  58 N7        30.31R
FINDLAY        CLEAR     48  41  76 N8        30.28R
TOLEDO EXPRESS CLEAR     45  41  86 CALM      30.30R
TOLEDO METCALF CLEAR     47  41  80 NE3       30.32R
LIMA           PTCLDY    51  37  58 N8        30.27R

$$
&&



USA.gov is the U.S. government's official web portal to all federal, state and local government web resources and services.